Location: Leeds
(37.2390°N, 113.3580°W)
Time: 03:46:34
(UTC-06:00)

SL-08 RB Rocket - Visible Passes

Search period start: 27 May 2015 00:00
Search period end: 06 June 2015 00:00
Orbit: 649 x 686 km, 98.1° (Epoch: 27 May)

Date Brightness Start Highest point End Pass type
(mag) Time Alt. Az. Time Alt. Az. Time Alt. Az.
27 May 5.9 00:18:55 18° W 00:19:08 18° W 00:22:10 10° NW visible
27 May 3.6 23:13:07 66° S 23:13:48 89° W 23:18:29 10° NNW visible
28 May 5.4 22:07:19 16° E 22:09:03 19° ENE 22:12:25 10° NNE visible
28 May 4.7 23:45:28 38° WSW 23:45:53 39° W 23:50:15 10° NNW visible
29 May 4.4 22:39:40 33° ESE 22:40:54 40° ENE 22:45:16 10° N visible
30 May 5.8 00:17:49 18° W 00:18:10 18° W 00:21:16 10° NW visible
30 May 3.6 23:12:01 61° SSE 23:12:50 89° E 23:17:31 10° NNW visible
31 May 5.4 22:06:13 15° E 22:08:06 19° ENE 22:11:24 10° NNE visible
31 May 4.6 23:44:23 38° WSW 23:44:56 40° W 23:49:18 10° NNW visible
01 Jun 4.4 22:38:35 31° ESE 22:39:56 39° ENE 22:44:17 10° N visible
02 Jun 5.8 00:16:44 18° W 00:17:12 18° W 00:20:20 10° NW visible
02 Jun 3.6 23:10:56 57° SSE 23:11:53 87° ENE 23:16:32 10° NNW visible
03 Jun 5.5 22:05:08 14° E 22:07:09 18° ENE 22:10:23 10° NNE visible
03 Jun 4.6 23:43:18 39° WSW 23:43:57 41° W 23:48:20 10° NNW visible
04 Jun 4.5 22:37:30 30° ESE 22:38:59 38° ENE 22:43:17 10° N visible
05 Jun 5.7 00:15:39 18° WSW 00:16:13 19° W 00:19:24 10° NW visible
05 Jun 3.6 23:09:52 54° SSE 23:10:55 85° ENE 23:15:33 10° NNW visible
